TimeCDT,TemperatureF,Dew PointF,Humidity,Sea Level PressureIn,VisibilityMPH,Wind Direction,Wind SpeedMPH,Gust SpeedMPH,PrecipitationIn,Events,Conditions,WindDirDegrees,DateUTC
12:14 AM,46.4,44.6,93,29.67,0.2,Calm,Calm,-,N/A,,Drizzle,0,2013-10-31 05:14:00
12:33 AM,46.4,44.6,93,29.66,0.2,Calm,Calm,-,N/A,Fog,Fog,0,2013-10-31 05:33:00
12:53 AM,46.4,44.6,93,29.65,0.2,Calm,Calm,-,N/A,Fog,Fog,0,2013-10-31 05:53:00
1:13 AM,46.4,44.6,93,29.64,0.2,Calm,Calm,-,N/A,Fog,Fog,0,2013-10-31 06:13:00
1:33 AM,46.4,44.6,93,29.64,0.2,Calm,Calm,-,N/A,Fog,Fog,0,2013-10-31 06:33:00
1:53 AM,46.4,44.6,93,29.63,0.2,Calm,Calm,-,N/A,Fog,Fog,0,2013-10-31 06:53:00
2:13 AM,46.4,44.6,93,29.63,0.2,Calm,Calm,-,N/A,Fog,Fog,0,2013-10-31 07:13:00
2:34 AM,46.4,44.6,93,29.62,0.2,Calm,Calm,-,N/A,Rain,Light Rain,0,2013-10-31 07:34:00
2:53 AM,46.4,44.6,93,29.62,0.5,Calm,Calm,-,0.01,Rain,Light Rain,0,2013-10-31 07:53:00
3:13 AM,46.4,44.6,93,29.60,0.5,West,4.6,-,N/A,Fog,Fog,280,2013-10-31 08:13:00
3:34 AM,44.6,44.6,100,29.60,1.0,West,4.6,-,N/A,,Overcast,260,2013-10-31 08:34:00
3:53 AM,44.6,44.6,100,29.58,2.5,West,4.6,-,N/A,,Overcast,280,2013-10-31 08:53:00
4:13 AM,44.6,42.8,93,29.57,3.0,West,4.6,-,N/A,,Overcast,270,2013-10-31 09:13:00
4:34 AM,44.6,42.8,93,29.56,3.0,West,5.8,-,N/A,,Overcast,280,2013-10-31 09:34:00
4:53 AM,44.6,42.8,93,29.55,3.0,West,5.8,-,N/A,,Overcast,280,2013-10-31 09:53:00
5:13 AM,44.6,42.8,93,29.54,2.5,WNW,5.8,-,N/A,,Overcast,290,2013-10-31 10:13:00
5:34 AM,44.6,42.8,93,29.55,2.5,Calm,Calm,-,N/A,,Overcast,0,2013-10-31 10:34:00
5:53 AM,44.6,42.8,93,29.57,2.0,WSW,3.5,-,N/A,,Overcast,250,2013-10-31 10:53:00
6:13 AM,44.6,42.8,93,29.59,3.0,WSW,5.8,-,N/A,,Overcast,240,2013-10-31 11:13:00
6:33 AM,42.8,42.8,100,29.58,2.0,WSW,4.6,-,N/A,,Overcast,240,2013-10-31 11:33:00
6:53 AM,42.8,42.8,100,29.53,1.5,Calm,Calm,-,N/A,,Overcast,0,2013-10-31 11:53:00
7:14 AM,42.8,42.8,100,29.51,2.5,Calm,Calm,-,N/A,,Overcast,0,2013-10-31 12:14:00
7:33 AM,42.8,42.8,100,29.53,3.0,West,3.5,-,N/A,,Overcast,260,2013-10-31 12:33:00
7:53 AM,42.8,42.8,100,29.53,4.0,WSW,5.8,-,N/A,,Overcast,250,2013-10-31 12:53:00
8:14 AM,42.8,42.8,100,29.53,4.0,WSW,6.9,-,N/A,,Overcast,250,2013-10-31 13:14:00
8:33 AM,42.8,42.8,100,29.53,4.0,WSW,4.6,-,N/A,,Overcast,250,2013-10-31 13:33:00
8:53 AM,42.8,42.8,100,29.54,3.0,West,8.1,-,N/A,,Overcast,260,2013-10-31 13:53:00
9:14 AM,42.8,41.0,93,29.54,4.0,West,5.8,-,N/A,,Overcast,260,2013-10-31 14:14:00
9:33 AM,42.8,41.0,93,29.53,5.0,West,6.9,-,N/A,,Overcast,270,2013-10-31 14:33:00
9:53 AM,42.8,41.0,93,29.51,1.5,West,5.8,-,N/A,,Overcast,270,2013-10-31 14:53:00
10:13 AM,42.8,41.0,93,29.52,0.5,West,5.8,-,N/A,Fog,Fog,260,2013-10-31 15:13:00
10:33 AM,42.8,41.0,93,29.51,0.2,West,5.8,-,N/A,Fog,Fog,270,2013-10-31 15:33:00
10:53 AM,42.8,41.0,93,29.50,0.5,West,6.9,-,N/A,Fog,Fog,260,2013-10-31 15:53:00
11:13 AM,42.8,41.0,93,29.50,0.8,West,6.9,-,N/A,,Light Drizzle,260,2013-10-31 16:13:00
11:33 AM,42.8,41.0,93,29.49,1.0,West,5.8,-,N/A,,Overcast,260,2013-10-31 16:33:00
11:53 AM,42.8,41.0,93,29.48,1.8,West,6.9,-,N/A,,Overcast,270,2013-10-31 16:53:00
12:13 PM,42.8,41.0,93,29.48,2.5,WSW,5.8,-,N/A,,Overcast,250,2013-10-31 17:13:00
12:34 PM,42.8,41.0,93,29.48,2.5,WSW,5.8,-,N/A,,Overcast,250,2013-10-31 17:34:00
12:53 PM,42.8,41.0,93,29.47,2.5,West,5.8,-,N/A,,Overcast,260,2013-10-31 17:53:00
1:13 PM,42.8,41.0,93,29.46,3.0,WSW,5.8,-,N/A,,Overcast,250,2013-10-31 18:13:00
1:34 PM,42.8,41.0,93,29.44,4.0,West,8.1,-,N/A,,Overcast,260,2013-10-31 18:34:00
1:53 PM,42.8,41.0,93,29.43,5.0,WSW,9.2,-,N/A,,Overcast,250,2013-10-31 18:53:00
2:13 PM,42.8,39.2,87,29.43,5.0,West,8.1,-,N/A,,Overcast,260,2013-10-31 19:13:00
2:34 PM,42.8,39.2,87,29.42,5.0,West,11.5,-,N/A,,Overcast,270,2013-10-31 19:34:00
2:53 PM,41.0,39.2,93,29.41,4.0,West,10.4,-,N/A,,Overcast,270,2013-10-31 19:53:00
3:13 PM,41.0,39.2,93,29.41,5.0,West,11.5,-,N/A,,Overcast,270,2013-10-31 20:13:00
3:34 PM,41.0,39.2,93,29.41,7.0,West,9.2,-,N/A,,Overcast,260,2013-10-31 20:34:00
3:53 PM,41.0,39.2,93,29.40,7.0,West,9.2,-,N/A,,Overcast,280,2013-10-31 20:53:00
4:13 PM,41.0,37.4,87,29.40,10.0,West,8.1,-,N/A,,Overcast,270,2013-10-31 21:13:00
4:33 PM,41.0,37.4,87,29.40,10.0,West,8.1,-,N/A,,Overcast,280,2013-10-31 21:33:00
4:53 PM,41.0,37.4,87,29.40,10.0,West,8.1,-,N/A,,Overcast,280,2013-10-31 21:53:00
5:13 PM,41.0,37.4,87,29.40,10.0,WNW,8.1,-,N/A,,Overcast,290,2013-10-31 22:13:00
5:33 PM,39.2,37.4,93,29.40,10.0,West,9.2,-,N/A,,Overcast,280,2013-10-31 22:33:00
5:54 PM,39.2,37.4,93,29.39,10.0,West,5.8,-,N/A,,Overcast,270,2013-10-31 22:54:00
6:13 PM,39.2,37.4,93,29.40,10.0,West,6.9,-,N/A,,Overcast,280,2013-10-31 23:13:00
6:34 PM,39.2,37.4,93,29.40,10.0,West,6.9,-,N/A,,Overcast,270,2013-10-31 23:34:00
6:53 PM,39.2,37.4,93,29.40,10.0,West,5.8,-,N/A,,Overcast,270,2013-10-31 23:53:00
7:13 PM,39.2,37.4,93,29.40,10.0,West,5.8,-,N/A,,Overcast,280,2013-11-01 00:13:00
7:34 PM,39.2,37.4,93,29.40,7.0,West,6.9,-,N/A,,Overcast,280,2013-11-01 00:34:00
7:53 PM,39.2,37.4,93,29.40,7.0,West,6.9,-,N/A,,Overcast,270,2013-11-01 00:53:00
8:13 PM,39.2,37.4,93,29.40,7.0,West,6.9,-,N/A,,Overcast,270,2013-11-01 01:13:00
8:33 PM,39.2,37.4,93,29.40,7.0,West,6.9,-,N/A,,Overcast,280,2013-11-01 01:33:00
8:53 PM,39.2,37.4,93,29.40,7.0,WNW,9.2,-,N/A,,Overcast,290,2013-11-01 01:53:00
9:13 PM,39.2,37.4,93,29.40,7.0,West,6.9,-,N/A,,Light Drizzle,280,2013-11-01 02:13:00
9:33 PM,39.2,37.4,93,29.40,7.0,West,8.1,-,N/A,,Light Drizzle,280,2013-11-01 02:33:00
9:53 PM,39.2,37.4,93,29.40,10.0,West,6.9,-,N/A,,Overcast,280,2013-11-01 02:53:00
10:13 PM,39.2,37.4,93,29.40,7.0,West,6.9,-,N/A,,Overcast,280,2013-11-01 03:13:00
10:33 PM,39.2,37.4,93,29.41,7.0,West,8.1,-,N/A,,Overcast,280,2013-11-01 03:33:00
10:53 PM,39.2,37.4,93,29.41,7.0,WNW,8.1,-,N/A,,Overcast,290,2013-11-01 03:53:00
11:13 PM,39.2,37.4,93,29.41,7.0,WNW,6.9,-,N/A,,Overcast,290,2013-11-01 04:13:00
11:33 PM,41.0,37.4,87,29.41,7.0,WNW,8.1,-,N/A,,Overcast,290,2013-11-01 04:33:00
11:53 PM,41.0,37.4,87,29.41,7.0,West,8.1,-,N/A,,Overcast,280,2013-11-01 04:53:00